This demonstration page uses our WeatherBlox Daily Observations layout. Learn more.

Hourly Observations for October 17, 2017

Temp ( °F °C ) Dew Point ( °F °C ) Humidity (%) Winds ( mph kmh ) Pressure ( in mb ) Visibility ( mi km ) Precip ( " mm )
12:54 am 00:54 Clear 57 13.9 40 4.4 53 53 SSW 14 22 30.11 1020 10 16.0934 0 0
1:54 am 01:54 Clear 57 13.9 39 3.9 51 51 SSW 13 20 30.09 1019 10 16.0934 0 0
2:54 am 02:54 Clear 55 12.8 40 4.4 57 57 SSW 13 20 30.09 1019 10 16.0934 0 0
3:54 am 03:54 Clear 53 11.7 40 4.4 61 61 S 9 15 30.08 1019 10 16.0934 0 0
4:54 am 04:54 Clear 50 10 40 4.4 68 68 SSW 8 13 30.09 1019 10 16.0934 0 0
5:54 am 05:54 Clear 48 8.9 40 4.4 74 74 Calm 30.11 1020 10 16.0934 0 0
6:54 am 06:54 Clear 46 7.8 39 3.9 77 77 SSE 5 7 30.12 1020 10 16.0934 0 0
7:54 am 07:54 Sunny 44 6.7 39 3.9 83 83 S 7 11 30.12 1020 10 16.0934 0 0
8:54 am 08:54 Sunny 49 9.4 43 6.1 80 80 S 5 7 30.12 1020 10 16.0934 0 0
9:54 am 09:54 Sunny 56 13.3 42 5.6 60 60 SW 9 15 30.12 1020 10 16.0934 0 0
10:54 am 10:54 Sunny 59 15 43 6.1 56 56 SSW 8 13 30.11 1020 10 16.0934 0 0
11:54 am 11:54 Sunny 63 17.2 44 6.7 50 50 SSW 8 13 30.09 1019 10 16.0934 0 0
12:54 pm 12:54 Sunny 67 19.4 44 6.7 44 44 S 7 11 30.08 1019 10 16.0934 0 0
1:54 pm 13:54 Sunny 70 21.1 44 6.7 39 39 S 6 9 30.05 1018 10 16.0934 0 0
2:54 pm 14:54 Sunny 71 21.7 45 7.2 39 39 VRB 3 6 30.02 1017 10 16.0934 0 0
3:54 pm 15:54 Sunny 73 22.8 46 7.8 38 38 S 12 19 30.01 1016 10 16.0934 0 0
4:54 pm 16:54 Sunny 73 22.8 46 7.8 38 38 S 7 11 30 1016 10 16.0934 0 0
5:54 pm 17:54 Sunny 67 19.4 49 9.4 53 53 S 7 11 29.99 1016 10 16.0934 0 0
6:54 pm 18:54 Clear 64 17.8 47 8.3 54 54 SSE 7 11 29.99 1016 10 16.0934 0 0
7:54 pm 19:54 Clear 60 15.6 46 7.8 60 60 SSE 8 13 30.01 1016 10 16.0934 0 0
8:54 pm 20:54 Clear 60 15.6 47 8.3 62 62 S 3 6 30 1016 10 16.0934 0 0
9:54 pm 21:54 Clear 56 13.3 46 7.8 70 70 S 5 7 30 1016 10 16.0934 0 0
10:54 pm 22:54 Clear 55 12.8 46 7.8 72 72 S 3 6 30 1016 10 16.0934 0 0
11:54 pm 23:54 Clear 52 11.1 46 7.8 80 80 SSE 6 9 29.99 1016 10 16.0934 0 0

Powered by AerisWeather